DW1253 Weather Reports


time (UTC)temp
F
wind
direction
speed
knots
gust
knots
rain 1hr
in
rain 24hr
in
rain mn
in
humidity
%
barometer
mb
20260505022848 60 166 2.6 7.0 0.00 0.00 0.00 70 1003.1
20260505022343 60 192 0.9 8.7 0.00 0.00 0.00 69 1003.2
20260505021839 60 119 3.5 8.7 0.00 0.00 0.00 67 1003.3
20260505021345 61 253 3.5 7.8 0.00 0.00 0.00 67 1003.2
20260505020842 61 254 1.7 6.1 0.00 0.00 0.00 65 1003.2
20260505020337 61 255 1.7 13.0 0.00 0.00 0.00 65 1003.2
20260505015847 62 323 3.5 13.0 0.00 0.00 0.00 63 1003.2
20260505015349 63 238 5.2 12.2 0.00 0.00 0.00 59 1003.1
20260505014837 62 234 4.3 8.7 0.00 0.00 0.00 55 1003.3
20260505014343 62 250 3.5 8.7 0.00 0.00 0.00 55 1002.9
20260505013842 61 263 1.7 4.3 0.00 0.00 0.00 54 1002.7
20260505013347 61 209 1.7 4.3 0.00 0.00 0.00 55 1002.6
20260505012845 62 182 0.9 5.2 0.00 0.00 0.00 53 1002.6
20260505012349 62 113 1.7 7.8 0.00 0.00 0.00 53 1002.7
20260505011839 62 148 2.6 4.3 0.00 0.00 0.00 53 1002.7
20260505011344 62 247 0.9 3.5 0.00 0.00 0.00 53 1002.9
20260505010846 62 254 0.9 4.3 0.00 0.00 0.00 53 1002.9
20260505010342 62 246 1.7 4.3 0.00 0.00 0.00 53 1002.9
20260505005845 62 221 1.7 7.0 0.00 0.00 0.00 52 1002.9
20260505005349 62 248 2.6 7.0 0.00 0.00 0.00 52 1002.8
20260505004833 62 241 1.7 5.2 0.00 0.00 0.00 51 1002.7
20260505004344 63 315 0.9 6.1 0.00 0.00 0.00 52 1002.7
20260505003837 63 254 1.7 7.8 0.00 0.00 0.00 51 1002.8
20260505003334 63 227 2.6 7.8 0.00 0.00 0.00 51 1002.7
20260505002858 63 214 2.6 6.1 0.00 0.00 0.00 50 1002.7
20260505002334 63 273 0.9 5.2 0.00 0.00 0.00 50 1002.6
20260505001835 63 246 1.7 5.2 0.00 0.00 0.00 50 1002.7
20260505001347 63 289 0.9 8.7 0.00 0.00 0.00 50 1002.8
20260505000844 64 219 3.5 8.7 0.00 0.00 0.00 48 1002.8
20260505000343 64 207 1.7 7.8 0.00 0.00 0.00 48 1002.9
20260504235851 65 225 0.9 8.7 0.00 0.00 0.00 46 1002.8
20260504235353 65 318 1.7 8.7 0.00 0.00 0.00 45 1002.8
20260504234907 65 177 1.7 11.3 0.00 0.00 0.00 45 1002.8
20260504234338 66 244 4.3 11.3 0.00 0.00 0.00 43 1002.8
20260504233837 66 222 3.5 11.3 0.00 0.00 0.00 43 1002.7
20260504233356 66 224 3.5 13.9 0.00 0.00 0.00 43 1002.8
20260504232843 66 230 3.5 10.4 0.00 0.00 0.00 42 1002.7
20260504232344 66 207 3.5 8.7 0.00 0.00 0.00 41 1002.7
20260504231905 66 233 1.7 8.7 0.00 0.00 0.00 42 1002.8
20260504231338 67 211 5.2 13.0 0.00 0.00 0.00 40 1002.7
20260504230844 67 274 4.3 13.0 0.00 0.00 0.00 42 1002.7
20260504230346 67 227 5.2 13.0 0.00 0.00 0.00 39 1002.7
20260504225848 67 286 4.3 12.2 0.00 0.00 0.00 41 1002.8
20260504225348 68 242 5.2 10.4 0.00 0.00 0.00 37 1002.7
20260504224909 68 205 2.6 7.8 0.00 0.00 0.00 39 1002.8
20260504224340 68 161 2.6 12.2 0.00 0.00 0.00 39 1002.8
20260504223834 68 290 4.3 12.2 0.00 0.00 0.00 39 1002.8
20260504223358 68 236 5.2 13.9 0.00 0.00 0.00 36 1002.8
20260504222915 68 228 3.5 13.9 0.00 0.00 0.00 38 1002.8
20260504222346 69 137 5.2 13.9 0.00 0.00 0.00 37 1002.6
20260504221843 69 281 3.5 13.9 0.00 0.00 0.00 37 1002.7
20260504221407 69 224 6.1 12.2 0.00 0.00 0.00 39 1002.7
20260504220912 69 219 7.0 13.0 0.00 0.00 0.00 39 1002.7
20260504220345 69 247 7.0 10.4 0.00 0.00 0.00 40 1002.8
20260504215847 69 225 4.3 11.3 0.00 0.00 0.00 41 1002.8
20260504215342 69 46 3.5 10.4 0.00 0.00 0.00 40 1002.8
20260504214903 69 209 0.9 10.4 0.00 0.00 0.00 41 1002.8
20260504214340 69 207 5.2 10.4 0.00 0.00 0.00 42 1002.8
20260504213849 69 217 3.5 8.7 0.00 0.00 0.00 43 1002.7
20260504213410 70 309 3.5 8.7 0.00 0.00 0.00 40 1002.5
20260504212847 70 218 2.6 13.9 0.00 0.00 0.00 40 1002.5
20260504212346 70 247 3.5 13.9 0.00 0.00 0.00 38 1002.6
20260504211859 69 230 3.5 10.4 0.00 0.00 0.00 41 1002.7
20260504211339 70 176 1.7 6.1 0.00 0.00 0.00 39 1002.7
20260504210919 71 222 3.5 7.0 0.00 0.00 0.00 39 1002.6
20260504210407 71 203 3.5 9.6 0.00 0.00 0.00 38 1002.5
20260504205856 72 234 4.3 9.6 0.00 0.00 0.00 36 1002.6
20260504205352 71 331 4.3 8.7 0.00 0.00 0.00 37 1002.5
20260504204915 71 169 3.5 9.6 0.00 0.00 0.00 39 1002.5
20260504204347 71 220 3.5 8.7 0.00 0.00 0.00 39 1002.6
20260504203848 70 265 5.2 10.4 0.00 0.00 0.00 38 1002.8
20260504203359 70 242 3.5 11.3 0.00 0.00 0.00 41 1002.8
20260504202910 70 215 6.1 11.3 0.00 0.00 0.00 38 1002.8
20260504202336 70 309 4.3 13.9 0.00 0.00 0.00 39 1003.0
20260504201850 69 209 5.2 9.6 0.00 0.00 0.00 41 1003.0
20260504201408 71 290 3.5 11.3 0.00 0.00 0.00 38 1003.0
20260504200838 71 250 5.2 11.3 0.00 0.00 0.00 40 1003.1
20260504200336 70 137 3.5 11.3 0.00 0.00 0.00 44 1003.2
20260504195834 70 234 3.5 13.9 0.00 0.00 0.00 43 1003.3
20260504195413 71 309 2.6 13.9 0.00 0.00 0.00 41 1003.2
20260504194834 71 240 3.5 7.0 0.00 0.00 0.00 40 1003.4
20260504194338 71 171 1.7 15.6 0.00 0.00 0.00 38 1003.5
20260504193844 71 237 3.5 15.6 0.00 0.00 0.00 39 1003.5
20260504193335 72 257 6.1 9.6 0.00 0.00 0.00 39 1003.6
20260504192853 70 247 3.5 13.0 0.00 0.00 0.00 42 1003.5
20260504192352 70 226 5.2 13.0 0.00 0.00 0.00 40 1003.9
20260504191857 71 235 4.3 11.3 0.00 0.00 0.00 41 1003.8
20260504191352 70 192 2.6 7.8 0.00 0.00 0.00 46 1003.8
20260504190854 69 246 3.5 12.2 0.00 0.00 0.00 49 1003.9
20260504190351 70 243 5.2 12.2 0.00 0.00 0.00 42 1004.0
20260504185850 70 280 3.5 13.0 0.00 0.00 0.00 44 1004.1
20260504185347 71 291 5.2 13.9 0.00 0.00 0.00 43 1004.0
20260504184854 71 245 9.6 13.9 0.00 0.00 0.00 41 1004.1
20260504184354 71 191 4.3 12.2 0.00 0.00 0.00 46 1004.0
20260504183852 70 215 6.1 12.2 0.00 0.00 0.00 43 1004.1
20260504183343 70 180 7.0 12.2 0.00 0.00 0.00 43 1004.0
20260504182837 70 257 5.2 10.4 0.00 0.00 0.00 42 1004.0
20260504182353 70 181 2.6 8.7 0.00 0.00 0.00 46 1004.1
20260504181851 69 195 4.3 14.8 0.00 0.00 0.00 42 1004.3
20260504181408 70 245 6.1 14.8 0.00 0.00 0.00 43 1004.2
20260504180836 70 254 4.3 14.8 0.00 0.00 0.00 45 1004.3
20260504180356 69 244 5.2 14.8 0.00 0.00 0.00 46 1004.4
20260504175847 69 215 7.0 17.4 0.00 0.00 0.00 43 1004.6
20260504175344 69 265 5.2 15.6 0.00 0.00 0.00 51 1004.5
20260504174850 70 282 7.0 15.6 0.00 0.00 0.00 45 1004.6
20260504174411 70 239 5.2 9.6 0.00 0.00 0.00 47 1004.7
20260504173853 69 225 4.3 14.8 0.00 0.00 0.00 45 1004.7
20260504173335 68 5 7.0 14.8 0.00 0.00 0.00 47 1004.7
20260504172834 68 170 5.2 10.4 0.00 0.00 0.00 50 1004.9
20260504172355 68 273 3.5 17.4 0.00 0.00 0.00 51 1005.0
20260504171914 67 286 6.1 17.4 0.00 0.00 0.00 48 1004.9
20260504171346 68 235 6.1 14.8 0.00 0.00 0.00 49 1004.9
20260504170857 68 259 7.0 14.8 0.00 0.00 0.00 49 1005.0
20260504170339 67 196 6.1 13.9 0.00 0.00 0.00 52 1005.0
20260504160334 64 277 5.2 10.4 0.00 0.00 0.00 52 1005.5
20260504150855 61 186 7.0 13.0 0.00 0.00 0.00 53 1005.9
20260504150344 61 276 5.2 11.3 0.00 0.00 0.00 54 1005.9
20260504140859 59 205 1.7 9.6 0.00 0.00 0.00 56 1005.9
20260504140351 59 246 6.1 10.4 0.00 0.00 0.00 60 1005.8
20260504130337 53 119 3.5 6.1 0.00 0.00 0.00 64 1006.3
20260504110348 48 148 4.3 11.3 0.00 0.02 0.00 66 1006.2
20260504100401 48 247 1.7 11.3 0.00 0.02 0.00 65 1005.8
20260504081851 45 218 1.7 10.4 0.00 0.02 0.00 69 1006.6
20260504070344 45 247 1.7 3.5 0.00 0.02 0.00 69 1007.3
20260504050332 46 267 2.6 7.0 0.00 0.02 0.00 64 1008.1
20260504045839 46 277 2.6 8.7 0.00 0.02 0.00 64 1008.1
20260504045343 46 222 3.5 8.7 0.00 0.02 0.00 65 1008.0
20260504044833 46 166 1.7 8.7 0.00 0.02 0.00 66 1008.1
20260504044338 46 217 2.6 8.7 0.00 0.02 0.00 66 1008.1
20260504043841 46 197 1.7 7.8 0.00 0.02 0.00 66 1008.1
20260504043343 46 228 3.5 10.4 0.00 0.02 0.00 65 1008.1
20260504042837 46 224 2.6 7.8 0.00 0.02 0.00 67 1008.1
20260504042334 46 242 2.6 7.0 0.00 0.02 0.00 67 1008.1
20260504041847 46 190 3.5 7.8 0.00 0.02 0.00 66 1008.1
20260504041348 46 227 2.6 7.8 0.00 0.02 0.00 66 1008.1
20260504040845 46 275 1.7 6.1 0.00 0.02 0.00 66 1008.0
20260504040341 46 219 1.7 6.1 0.00 0.02 0.00 66 1008.0
20260504035841 46 227 2.6 6.1 0.00 0.02 0.02 67 1008.2
20260504035349 46 234 2.6 9.6 0.00 0.02 0.02 67 1008.3
20260504034847 46 265 1.7 9.6 0.00 0.02 0.02 67 1008.0
20260504034332 46 183 0.9 8.7 0.00 0.02 0.02 67 1008.1
20260504033838 47 248 0.9 7.0 0.00 0.02 0.02 65 1008.1
20260504033337 47 247 2.6 5.2 0.00 0.02 0.02 65 1008.3
20260504032901 47 182 1.7 6.1 0.00 0.02 0.02 65 1008.3
20260504032343 48 226 2.6 6.1 0.00 0.02 0.02 64 1008.4
20260504031831 48 242 2.6 10.4 0.00 0.02 0.02 64 1008.4
20260504031347 48 231 2.6 10.4 0.00 0.02 0.02 62 1008.3
20260504030848 48 236 2.6 8.7 0.00 0.02 0.02 62 1008.4
20260504030331 48 226 3.5 8.7 0.00 0.02 0.02 61 1008.4
20260504025839 49 262 3.5 7.8 0.00 0.02 0.02 60 1008.4
20260504025404 49 175 3.5 9.6 0.00 0.02 0.02 61 1008.5
20260504024840 49 214 1.7 9.6 0.00 0.02 0.02 61 1008.5
20260504024407 49 213 3.5 9.6 0.00 0.02 0.02 60 1008.5
20260504023831 50 247 2.6 7.8 0.00 0.02 0.02 59 1008.6
20260504023333 50 231 3.5 8.7 0.00 0.02 0.02 59 1008.6